Location: Oklahoma City
(35.4680°N, 97.5160°W)
Time: 01:44:54
(UTC-05:00)

ISS - Visible Passes

Search period start: 08 September 2024 00:00
Search period end: 18 September 2024 00:00
Orbit: 415 x 426 km, 51.6° (Epoch: 07 September)

Date Brightness Start Highest point End Pass type
(mag) Time Alt. Az. Time Alt. Az. Time Alt. Az.
08 Sep -0.9 04:41:47 18° ENE 04:41:47 18° ENE 04:43:00 10° E visible
08 Sep -2.8 06:14:52 16° W 06:16:51 28° SW 06:19:48 10° SSE visible
08 Sep -1.9 21:18:16 10° SSW 21:19:30 20° SSW 21:19:30 20° SSW visible
09 Sep -2.3 05:31:20 27° SSE 05:31:20 27° SSE 05:33:08 10° SSE visible
09 Sep -2.4 20:31:46 10° S 20:34:26 22° SE 20:35:48 17° E visible
09 Sep -0.8 22:08:06 10° W 22:08:53 15° W 22:08:53 15° W visible
10 Sep -3.1 21:20:41 10° WSW 21:23:58 53° NW 21:24:51 39° NNE visible
11 Sep -3.9 20:33:32 10° SW 20:36:52 83° SE 20:40:15 10° NE visible
11 Sep -0.6 22:12:15 10° WNW 22:13:33 14° NW 22:13:33 14° NW visible
12 Sep -1.2 21:24:16 10° W 21:26:49 20° NNW 21:28:56 12° NNE visible
13 Sep -1.9 20:36:38 10° W 20:39:38 30° NW 20:42:39 10° NNE visible
15 Sep -0.9 20:40:56 10° WNW 20:42:43 13° NNW 20:44:29 10° N visible
